C/2016 Q2 ( PanSTARRS )

Japanese version
Home page
Updated on August 15, 2020

---------------------------------------------------------------------

* Profile

Discovery Date August 26, 2016
Magnitude 21.6 mag
Discoverer Pan-STARRS 1 telescope (Haleakala)

* Pictures

* Orbital Elements

Epoch 2021 May 26.0 TT = JDT 2459360.5
T 2021 May 11.89251 TT                                  Rudenko
q   7.0819012            (2000.0)            P               Q
z  -0.0000950      Peri.   84.52880     -0.12666660     -0.80693129
 +/-0.0000011      Node   322.29574     -0.66688496     +0.49981170
e   1.0006730      Incl.  109.38825     +0.73431602     +0.31472235
From 237 observations 2016 Aug. 26-2020 July 28, mean residual 0".5.

* Finding Charts

* Magnitudes Graph

        m1 = 9.5 + 5 log d + 5.0 log r

---------------------------------------------------------------------

The orbital elements are published on M.P.E.C. 2020-P19.
The charts are made with StellaNavigator Ver.10 (AstroArts).
The magnitudes graphs are made with Comet for Windows.

---------------------------------------------------------------------

Copyright(C) Seiichi Yoshida (comet@aerith.net). All rights reserved.